sat.trackr.live / text

‹ back to catalog

CYGFM05

NORAD 41884 · 2016-078A

PAYLOAD INACTIVE UNKNOWN

§ Identity

Operator
Country
US
Launch date
2016-12-15
Launch site
ERAS
Launch vehicle
Mass (kg)
RCS (m²)
0.19

Purposes: earth_obs

External: N2YO · Heavens-Above · Gunter

§ Orbital elements

Epoch: 2026-09-19T15:34:25.112064Z

Period
92.26 min
Inclination
34.9572°
Eccentricity
0.0005139
Mean motion
15.60800027 rev/d
Perigee alt
381.9 km
Apogee alt
388.8 km
Semi-major
6,763.5 km
B*
2.4468e-4
RAAN
353.1569°
Arg perigee
332.0591°
Mean anomaly
27.9858°
Rev number
54,350

§ Raw data

CYGFM051 41884U 16078A   26262.64890176  .00021108  00000+0  24468-3 0  99942 41884  34.9572 353.1569 0005139 332.0591  27.9858 15.60800027543505

JSON: /api/v1/satellites/41884 · /tle

For live sub-satellite position, see the globe view (requires WebGL).

§ Visibility from observer

Set your observer location to see the next 7 days of passes ≥ 10°. The values pass through the URL so the page stays shareable.

No JS? Fill the form by hand. The geolocation button needs JavaScript.